Time,TemperatureF,DewpointF,PressureIn,WindDirection,WindDirectionDegrees,WindSpeedMPH,WindSpeedGustMPH,Humidity,HourlyPrecipIn,Conditions,Clouds,dailyrainin,SolarRadiationWatts/m^2,SoftwareType,DateUTC
2013-05-29 00:05:00,57.6,-99.9,20.00,NNW,344,0.0,7.0,255,0.00,,,0.00,0,Wunderground v.1.15,2013-05-29 04:05:00,
2013-05-29 00:10:00,57.5,-99.9,20.00,NNW,344,0.0,7.0,255,0.00,,,0.00,0,Wunderground v.1.15,2013-05-29 04:10:00,
2013-05-29 00:15:00,57.7,-99.9,20.00,NNW,344,0.0,7.0,255,0.00,,,0.00,0,Wunderground v.1.15,2013-05-29 04:15:00,
2013-05-29 00:20:00,57.3,-99.9,20.00,NNW,344,0.0,7.0,255,0.00,,,0.00,0,Wunderground v.1.15,2013-05-29 04:20:00,
2013-05-29 00:25:00,56.9,-99.9,20.00,NNW,344,0.0,7.0,255,0.00,,,0.00,0,Wunderground v.1.15,2013-05-29 04:25:00,
2013-05-29 00:30:00,57.3,-99.9,20.00,NNW,344,0.0,7.0,255,0.00,,,0.00,0,Wunderground v.1.15,2013-05-29 04:30:00,
2013-05-29 00:35:00,57.7,-99.9,20.00,NNW,345,0.0,7.0,255,0.00,,,0.00,0,Wunderground v.1.15,2013-05-29 04:35:00,
2013-05-29 00:40:00,57.4,-99.9,20.00,NNW,344,0.0,7.0,255,0.00,,,0.00,0,Wunderground v.1.15,2013-05-29 04:40:00,
2013-05-29 00:45:00,57.2,-99.9,20.00,NNW,344,0.0,7.0,255,0.00,,,0.00,0,Wunderground v.1.15,2013-05-29 04:45:00,
2013-05-29 00:55:00,57.1,-99.9,20.00,NNW,344,0.0,7.0,255,0.00,,,0.00,0,Wunderground v.1.15,2013-05-29 04:55:00,
2013-05-29 01:05:00,56.4,-99.9,20.00,NNW,345,0.0,7.0,255,0.00,,,0.00,0,Wunderground v.1.15,2013-05-29 05:05:00,
2013-05-29 01:10:00,56.2,-99.9,20.00,NNW,344,0.0,7.0,255,0.00,,,0.00,0,Wunderground v.1.15,2013-05-29 05:10:00,
2013-05-29 01:15:00,56.6,-99.9,20.00,NNW,344,0.0,7.0,255,0.00,,,0.00,0,Wunderground v.1.15,2013-05-29 05:15:00,
2013-05-29 01:20:00,56.8,-99.9,20.00,NNW,344,0.0,7.0,255,0.00,,,0.00,0,Wunderground v.1.15,2013-05-29 05:20:00,
2013-05-29 01:30:00,56.5,-99.9,20.00,NNW,344,0.0,7.0,255,0.00,,,0.00,0,Wunderground v.1.15,2013-05-29 05:30:00,
2013-05-29 01:35:00,56.4,-99.9,20.00,NNW,344,0.0,7.0,255,0.00,,,0.00,0,Wunderground v.1.15,2013-05-29 05:35:00,
2013-05-29 01:40:00,56.3,-99.9,20.00,NNW,344,0.0,7.0,255,0.00,,,0.00,0,Wunderground v.1.15,2013-05-29 05:40:00,
2013-05-29 01:45:00,56.0,-99.9,20.00,NNW,344,0.0,7.0,255,0.00,,,0.00,0,Wunderground v.1.15,2013-05-29 05:45:00,
2013-05-29 01:55:00,55.8,-99.9,19.99,West,277,6.0,7.0,255,0.00,,,0.00,0,Wunderground v.1.15,2013-05-29 05:55:00,
2013-05-29 02:05:00,56.8,-99.9,20.00,NW,316,1.0,7.0,255,0.00,,,0.00,0,Wunderground v.1.15,2013-05-29 06:05:00,
2013-05-29 02:10:00,56.7,-99.9,20.00,NW,307,5.0,7.0,255,0.00,,,0.00,0,Wunderground v.1.15,2013-05-29 06:10:00,
2013-05-29 02:15:00,57.3,-99.9,20.00,WNW,293,5.0,7.0,255,0.00,,,0.00,0,Wunderground v.1.15,2013-05-29 06:15:00,
2013-05-29 02:20:00,56.8,-99.9,20.00,WNW,295,3.0,7.0,255,0.00,,,0.00,0,Wunderground v.1.15,2013-05-29 06:20:00,
2013-05-29 02:25:00,56.7,-99.9,20.00,West,278,2.0,7.0,255,0.00,,,0.00,0,Wunderground v.1.15,2013-05-29 06:25:00,
2013-05-29 02:35:00,56.1,-99.9,20.00,ENE,64,0.0,7.0,255,0.00,,,0.00,0,Wunderground v.1.15,2013-05-29 06:35:00,
2013-05-29 02:40:00,56.2,-99.9,20.00,ENE,64,0.0,7.0,255,0.00,,,0.00,0,Wunderground v.1.15,2013-05-29 06:40:00,
2013-05-29 02:45:00,55.8,-99.9,19.99,ENE,64,0.0,7.0,255,0.00,,,0.00,0,Wunderground v.1.15,2013-05-29 06:45:00,
2013-05-29 02:50:00,55.9,-99.9,20.00,ENE,64,0.0,7.0,255,0.00,,,0.00,0,Wunderground v.1.15,2013-05-29 06:50:00,
2013-05-29 03:00:00,55.8,-99.9,20.00,ENE,64,0.0,7.0,255,0.00,,,0.00,0,Wunderground v.1.15,2013-05-29 07:00:00,
2013-05-29 03:10:00,55.5,-99.9,20.00,ENE,64,0.0,1.0,255,0.00,,,0.00,0,Wunderground v.1.15,2013-05-29 07:10:00,
2013-05-29 03:20:00,55.5,-99.9,20.00,ENE,64,3.0,3.0,255,0.00,,,0.00,0,Wunderground v.1.15,2013-05-29 07:20:00,
2013-05-29 03:25:00,55.4,-99.9,20.00,ENE,67,0.0,3.0,255,0.00,,,0.00,0,Wunderground v.1.15,2013-05-29 07:25:00,
2013-05-29 03:30:00,55.4,-99.9,19.99,ENE,67,0.0,1.0,255,0.00,,,0.00,0,Wunderground v.1.15,2013-05-29 07:30:00,
2013-05-29 03:40:00,55.3,-99.9,20.00,ENE,67,0.0,1.0,255,0.00,,,0.00,0,Wunderground v.1.15,2013-05-29 07:40:00,
2013-05-29 03:45:00,55.3,-99.9,20.00,ENE,67,0.0,1.0,255,0.00,,,0.00,0,Wunderground v.1.15,2013-05-29 07:45:00,
2013-05-29 03:55:00,55.3,-99.9,20.00,ENE,67,0.0,1.0,255,0.00,,,0.00,0,Wunderground v.1.15,2013-05-29 07:55:00,
2013-05-29 04:00:00,55.3,-99.9,20.00,ENE,67,0.0,1.0,255,0.00,,,0.00,0,Wunderground v.1.15,2013-05-29 08:00:00,
2013-05-29 04:05:00,55.2,-99.9,20.00,ENE,67,0.0,1.0,255,0.00,,,0.00,0,Wunderground v.1.15,2013-05-29 08:05:00,
2013-05-29 04:10:00,55.1,-99.9,19.99,ENE,67,0.0,1.0,255,0.00,,,0.00,0,Wunderground v.1.15,2013-05-29 08:10:00,
2013-05-29 04:15:00,54.9,-99.9,19.99,ENE,67,1.0,1.0,255,0.00,,,0.00,0,Wunderground v.1.15,2013-05-29 08:15:00,
2013-05-29 04:20:00,54.8,-99.9,19.99,ENE,68,0.0,1.0,255,0.00,,,0.00,0,Wunderground v.1.15,2013-05-29 08:20:00,
2013-05-29 04:30:00,54.9,-99.9,20.00,ENE,68,0.0,1.0,255,0.00,,,0.00,0,Wunderground v.1.15,2013-05-29 08:30:00,
2013-05-29 04:40:00,54.8,-99.9,20.00,ENE,68,0.0,1.0,255,0.00,,,0.00,0,Wunderground v.1.15,2013-05-29 08:40:00,
2013-05-29 04:45:00,54.8,-99.9,20.00,ENE,68,0.0,1.0,255,0.00,,,0.00,0,Wunderground v.1.15,2013-05-29 08:45:00,
2013-05-29 04:50:00,55.1,-99.9,19.99,ENE,68,0.0,1.0,255,0.00,,,0.00,0,Wunderground v.1.15,2013-05-29 08:50:00,
2013-05-29 04:55:00,55.0,-99.9,19.99,ENE,68,0.0,1.0,255,0.00,,,0.00,0,Wunderground v.1.15,2013-05-29 08:55:00,
2013-05-29 05:05:00,55.1,-99.9,20.00,ENE,68,1.0,1.0,255,0.00,,,0.00,0,Wunderground v.1.15,2013-05-29 09:05:00,
2013-05-29 05:10:00,55.0,-99.9,20.00,ENE,68,0.0,1.0,255,0.00,,,0.00,0,Wunderground v.1.15,2013-05-29 09:10:00,
2013-05-29 05:15:00,54.9,-99.9,19.99,ENE,68,0.0,1.0,255,0.00,,,0.00,0,Wunderground v.1.15,2013-05-29 09:15:00,
2013-05-29 05:25:00,55.1,-99.9,19.99,ENE,68,0.0,1.0,255,0.00,,,0.00,0,Wunderground v.1.15,2013-05-29 09:25:00,
2013-05-29 05:30:00,55.1,-99.9,19.99,ENE,68,0.0,1.0,255,0.00,,,0.00,0,Wunderground v.1.15,2013-05-29 09:30:00,
2013-05-29 05:35:00,55.1,-99.9,20.00,ENE,68,0.0,1.0,255,0.00,,,0.00,0,Wunderground v.1.15,2013-05-29 09:35:00,
2013-05-29 05:40:00,55.1,-99.9,19.99,ENE,68,0.0,1.0,255,0.00,,,0.00,0,Wunderground v.1.15,2013-05-29 09:40:00,
2013-05-29 05:45:00,55.1,-99.9,19.99,ENE,68,0.0,1.0,255,0.00,,,0.00,0,Wunderground v.1.15,2013-05-29 09:45:00,
2013-05-29 05:50:00,55.2,-99.9,20.00,SSE,148,0.0,1.0,255,0.00,,,0.00,0,Wunderground v.1.15,2013-05-29 09:50:00,
2013-05-29 05:55:00,55.2,-99.9,19.99,SSE,148,0.0,1.0,255,0.00,,,0.00,0,Wunderground v.1.15,2013-05-29 09:55:00,
2013-05-29 06:00:00,55.2,-99.9,20.00,SSE,148,0.0,1.0,255,0.00,,,0.00,0,Wunderground v.1.15,2013-05-29 10:00:00,
2013-05-29 06:10:00,55.3,-99.9,20.00,SSE,148,0.0,5.0,255,0.00,,,0.00,0,Wunderground v.1.15,2013-05-29 10:10:00,
2013-05-29 06:20:00,55.3,-99.9,20.00,SSE,148,0.0,5.0,255,0.00,,,0.00,0,Wunderground v.1.15,2013-05-29 10:20:00,
2013-05-29 06:30:00,55.4,-99.9,20.00,SSE,148,0.0,5.0,255,0.00,,,0.00,0,Wunderground v.1.15,2013-05-29 10:30:00,
2013-05-29 06:35:00,55.2,-99.9,20.00,SSE,148,0.0,5.0,255,0.00,,,0.00,0,Wunderground v.1.15,2013-05-29 10:35:00,
2013-05-29 06:40:00,55.4,-99.9,20.00,SSE,148,0.0,5.0,255,0.00,,,0.00,0,Wunderground v.1.15,2013-05-29 10:40:00,
2013-05-29 06:45:00,55.5,-99.9,20.00,SSE,148,0.0,5.0,255,0.00,,,0.00,0,Wunderground v.1.15,2013-05-29 10:45:00,
2013-05-29 06:55:00,55.4,-99.9,20.00,SSE,148,0.0,5.0,255,0.00,,,0.00,0,Wunderground v.1.15,2013-05-29 10:55:00,
2013-05-29 07:00:00,55.5,-99.9,19.99,SSE,148,0.0,5.0,255,0.00,,,0.00,0,Wunderground v.1.15,2013-05-29 11:00:00,
2013-05-29 07:05:00,55.7,-99.9,20.00,SSE,148,0.0,5.0,255,0.00,,,0.00,0,Wunderground v.1.15,2013-05-29 11:05:00,
2013-05-29 07:10:00,55.8,-99.9,20.00,SSE,159,0.0,5.0,255,0.00,,,0.00,0,Wunderground v.1.15,2013-05-29 11:10:00,
2013-05-29 07:15:00,55.7,-99.9,20.00,SSE,159,0.0,5.0,255,0.00,,,0.00,0,Wunderground v.1.15,2013-05-29 11:15:00,
2013-05-29 07:25:00,55.8,-99.9,20.00,SSE,159,0.0,5.0,255,0.00,,,0.00,0,Wunderground v.1.15,2013-05-29 11:25:00,
2013-05-29 07:30:00,56.2,-99.9,20.00,SSE,159,0.0,5.0,255,0.00,,,0.00,0,Wunderground v.1.15,2013-05-29 11:30:00,
2013-05-29 07:35:00,56.4,-99.9,20.00,SSE,159,0.0,5.0,255,0.00,,,0.00,0,Wunderground v.1.15,2013-05-29 11:35:00,
2013-05-29 07:40:00,56.6,-99.9,20.00,SSE,159,0.0,5.0,255,0.00,,,0.00,0,Wunderground v.1.15,2013-05-29 11:40:00,
2013-05-29 07:45:00,56.3,-99.9,20.00,SSE,159,2.0,5.0,255,0.00,,,0.00,0,Wunderground v.1.15,2013-05-29 11:45:00,
2013-05-29 07:50:00,56.5,-99.9,19.99,SSE,159,0.0,5.0,255,0.00,,,0.00,0,Wunderground v.1.15,2013-05-29 11:50:00,
2013-05-29 07:55:00,56.8,-99.9,20.00,SSE,159,0.0,5.0,255,0.00,,,0.00,0,Wunderground v.1.15,2013-05-29 11:55:00,
2013-05-29 08:05:00,57.2,-99.9,20.00,SSE,159,1.0,5.0,255,0.00,,,0.00,0,Wunderground v.1.15,2013-05-29 12:05:00,
2013-05-29 08:10:00,57.3,-99.9,20.00,SSE,159,1.0,5.0,255,0.00,,,0.00,0,Wunderground v.1.15,2013-05-29 12:10:00,
2013-05-29 08:15:00,57.5,-99.9,20.00,SSE,160,2.0,5.0,255,0.00,,,0.00,0,Wunderground v.1.15,2013-05-29 12:15:00,
2013-05-29 08:20:00,57.4,-99.9,20.00,SSE,160,0.0,5.0,255,0.00,,,0.00,0,Wunderground v.1.15,2013-05-29 12:20:00,
2013-05-29 08:30:00,57.4,-99.9,20.00,SSE,160,1.0,5.0,255,0.00,,,0.00,0,Wunderground v.1.15,2013-05-29 12:30:00,
2013-05-29 08:35:00,57.4,-99.9,20.00,SSE,160,0.0,5.0,255,0.00,,,0.00,0,Wunderground v.1.15,2013-05-29 12:35:00,
2013-05-29 08:40:00,57.3,-99.9,20.00,SSE,160,0.0,5.0,255,0.00,,,0.00,0,Wunderground v.1.15,2013-05-29 12:40:00,
2013-05-29 08:45:00,57.2,-99.9,20.00,SSE,160,0.0,5.0,255,0.00,,,0.00,0,Wunderground v.1.15,2013-05-29 12:45:00,
2013-05-29 08:50:00,57.2,-99.9,20.00,SSE,160,0.0,5.0,255,0.00,,,0.00,0,Wunderground v.1.15,2013-05-29 12:50:00,
2013-05-29 08:55:00,57.1,-99.9,20.00,SSE,160,1.0,5.0,255,0.00,,,0.00,0,Wunderground v.1.15,2013-05-29 12:55:00,
2013-05-29 09:00:00,57.3,-99.9,20.00,SSE,160,0.0,5.0,255,0.00,,,0.00,0,Wunderground v.1.15,2013-05-29 13:00:00,
2013-05-29 09:10:00,57.6,-99.9,20.00,SSE,160,0.0,5.0,255,0.00,,,0.00,0,Wunderground v.1.15,2013-05-29 13:10:00,
2013-05-29 09:15:00,57.8,-99.9,20.00,SSE,160,0.0,5.0,255,0.00,,,0.00,0,Wunderground v.1.15,2013-05-29 13:15:00,
2013-05-29 09:20:00,58.0,-99.9,20.00,SSE,160,0.0,5.0,255,0.00,,,0.00,0,Wunderground v.1.15,2013-05-29 13:20:00,
2013-05-29 09:30:00,58.1,-99.9,19.99,SSE,160,0.0,5.0,255,0.00,,,0.00,0,Wunderground v.1.15,2013-05-29 13:30:00,
2013-05-29 09:35:00,58.1,-99.9,20.00,SSE,159,1.0,5.0,255,0.00,,,0.00,0,Wunderground v.1.15,2013-05-29 13:35:00,
2013-05-29 09:40:00,58.2,-99.9,20.00,SSE,160,0.0,5.0,255,0.00,,,0.00,0,Wunderground v.1.15,2013-05-29 13:40:00,
2013-05-29 09:45:00,58.5,-99.9,20.00,SSE,160,0.0,5.0,255,0.00,,,0.00,0,Wunderground v.1.15,2013-05-29 13:45:00,
2013-05-29 09:50:00,59.4,-99.9,20.00,SSE,159,0.0,5.0,255,0.00,,,0.00,0,Wunderground v.1.15,2013-05-29 13:50:00,
2013-05-29 09:55:00,60.2,-99.9,19.99,North,0,3.0,5.0,255,0.00,,,0.00,0,Wunderground v.1.15,2013-05-29 13:55:00,
2013-05-29 10:00:00,60.8,-99.9,20.00,NW,321,3.0,5.0,255,0.00,,,0.00,0,Wunderground v.1.15,2013-05-29 14:00:00,
2013-05-29 10:05:00,61.2,-99.9,19.99,NW,317,3.0,5.0,255,0.00,,,0.00,0,Wunderground v.1.15,2013-05-29 14:05:00,
2013-05-29 10:10:00,61.5,-99.9,20.00,North,0,3.0,5.0,255,0.00,,,0.00,0,Wunderground v.1.15,2013-05-29 14:10:00,
2013-05-29 10:20:00,62.0,-99.9,20.00,NE,38,4.0,5.0,255,0.00,,,0.00,0,Wunderground v.1.15,2013-05-29 14:20:00,
2013-05-29 10:25:00,61.9,-99.9,19.99,NNE,26,4.0,5.0,255,0.00,,,0.00,0,Wunderground v.1.15,2013-05-29 14:25:00,
2013-05-29 10:35:00,62.3,-99.9,20.00,NNE,18,2.0,5.0,255,0.00,,,0.00,0,Wunderground v.1.15,2013-05-29 14:35:00,
2013-05-29 10:40:00,62.1,-99.9,20.00,NNE,18,2.0,5.0,255,0.00,,,0.00,0,Wunderground v.1.15,2013-05-29 14:40:00,
2013-05-29 10:45:00,62.4,-99.9,19.99,NNE,18,4.0,5.0,255,0.00,,,0.00,0,Wunderground v.1.15,2013-05-29 14:45:00,
2013-05-29 10:55:00,62.9,-99.9,20.00,NNW,327,2.0,5.0,255,0.00,,,0.00,0,Wunderground v.1.15,2013-05-29 14:55:00,
2013-05-29 11:00:00,63.3,-99.9,20.00,NNW,340,3.0,5.0,255,0.00,,,0.00,0,Wunderground v.1.15,2013-05-29 15:00:00,
2013-05-29 11:05:00,64.2,-99.9,19.99,NNW,339,3.0,5.0,255,0.00,,,0.00,0,Wunderground v.1.15,2013-05-29 15:05:00,
2013-05-29 11:10:00,64.0,-99.9,20.00,North,359,2.0,5.0,255,0.00,,,0.00,0,Wunderground v.1.15,2013-05-29 15:10:00,
2013-05-29 11:15:00,64.2,-99.9,20.00,NW,316,4.0,5.0,255,0.00,,,0.00,0,Wunderground v.1.15,2013-05-29 15:15:00,
2013-05-29 11:25:00,64.8,-99.9,20.00,NNE,27,3.0,5.0,255,0.00,,,0.00,0,Wunderground v.1.15,2013-05-29 15:25:00,
2013-05-29 11:30:00,65.4,-99.9,20.00,NNE,14,4.0,5.0,255,0.00,,,0.00,0,Wunderground v.1.15,2013-05-29 15:30:00,
2013-05-29 11:35:00,66.1,-99.9,19.99,NNE,32,7.0,7.0,255,0.00,,,0.00,0,Wunderground v.1.15,2013-05-29 15:35:00,
2013-05-29 11:40:00,65.8,-99.9,20.00,NE,52,5.0,5.0,255,0.00,,,0.00,0,Wunderground v.1.15,2013-05-29 15:40:00,
2013-05-29 11:45:00,65.5,-99.9,20.00,NE,50,4.0,5.0,255,0.00,,,0.00,0,Wunderground v.1.15,2013-05-29 15:45:00,
2013-05-29 11:50:00,64.9,-99.9,20.00,ENE,68,5.0,5.0,255,0.00,,,0.00,0,Wunderground v.1.15,2013-05-29 15:50:00,
2013-05-29 12:00:00,64.6,-99.9,20.00,NE,56,0.0,5.0,255,0.00,,,0.00,0,Wunderground v.1.15,2013-05-29 16:00:00,
2013-05-29 12:05:00,64.4,-99.9,20.00,ENE,59,3.0,5.0,255,0.00,,,0.00,0,Wunderground v.1.15,2013-05-29 16:05:00,
2013-05-29 12:10:00,64.6,-99.9,20.00,ENE,59,3.0,5.0,255,0.00,,,0.00,0,Wunderground v.1.15,2013-05-29 16:10:00,
2013-05-29 12:15:00,65.0,-99.9,20.00,ENE,59,0.0,5.0,255,0.00,,,0.00,0,Wunderground v.1.15,2013-05-29 16:15:00,
2013-05-29 12:20:00,64.7,-99.9,20.00,ENE,59,2.0,5.0,255,0.00,,,0.00,0,Wunderground v.1.15,2013-05-29 16:20:00,
2013-05-29 12:30:00,64.8,-99.9,19.99,ENE,59,2.0,5.0,255,0.00,,,0.00,0,Wunderground v.1.15,2013-05-29 16:30:00,
2013-05-29 12:40:00,66.4,-99.9,20.00,ENE,59,2.0,5.0,255,0.00,,,0.00,0,Wunderground v.1.15,2013-05-29 16:40:00,
2013-05-29 12:45:00,66.4,-99.9,19.99,ENE,59,0.0,5.0,255,0.00,,,0.00,0,Wunderground v.1.15,2013-05-29 16:45:00,
2013-05-29 12:50:00,66.1,-99.9,20.00,ENE,59,5.0,5.0,255,0.00,,,0.00,0,Wunderground v.1.15,2013-05-29 16:50:00,
2013-05-29 12:55:00,66.4,-99.9,20.00,North,0,3.0,5.0,255,0.00,,,0.00,0,Wunderground v.1.15,2013-05-29 16:55:00,
2013-05-29 13:00:00,66.4,-99.9,20.00,North,4,2.0,5.0,255,0.00,,,0.00,0,Wunderground v.1.15,2013-05-29 17:00:00,
2013-05-29 13:10:00,67.3,-99.9,20.00,NNE,15,0.0,5.0,255,0.00,,,0.00,0,Wunderground v.1.15,2013-05-29 17:10:00,
2013-05-29 13:15:00,69.4,-99.9,20.00,NNE,14,3.0,5.0,255,0.00,,,0.00,0,Wunderground v.1.15,2013-05-29 17:15:00,
2013-05-29 13:25:00,68.8,-99.9,20.00,NNE,33,0.0,7.0,255,0.00,,,0.00,0,Wunderground v.1.15,2013-05-29 17:25:00,
2013-05-29 13:30:00,68.9,-99.9,19.99,ENE,70,6.0,6.0,255,0.00,,,0.00,0,Wunderground v.1.15,2013-05-29 17:30:00,
2013-05-29 13:35:00,68.4,-99.9,20.00,NNE,22,8.0,8.0,255,0.00,,,0.00,0,Wunderground v.1.15,2013-05-29 17:35:00,
2013-05-29 13:40:00,68.5,-99.9,20.00,North,0,3.0,5.0,255,0.00,,,0.00,0,Wunderground v.1.15,2013-05-29 17:40:00,
2013-05-29 13:45:00,69.3,-99.9,20.00,NNE,33,5.0,5.0,255,0.00,,,0.00,0,Wunderground v.1.15,2013-05-29 17:45:00,
2013-05-29 13:50:00,73.0,-99.9,20.00,NE,43,2.0,5.0,255,0.00,,,0.00,0,Wunderground v.1.15,2013-05-29 17:50:00,
2013-05-29 13:55:00,72.6,-99.9,20.00,NE,41,4.0,5.0,255,0.00,,,0.00,0,Wunderground v.1.15,2013-05-29 17:55:00,
2013-05-29 14:00:00,72.6,-99.9,20.00,NE,40,6.0,6.0,255,0.00,,,0.00,0,Wunderground v.1.15,2013-05-29 18:00:00,
2013-05-29 14:10:00,74.3,-99.9,20.00,NNE,19,3.0,5.0,255,0.00,,,0.00,0,Wunderground v.1.15,2013-05-29 18:10:00,
2013-05-29 14:15:00,73.0,-99.9,20.00,North,0,3.0,5.0,255,0.00,,,0.00,0,Wunderground v.1.15,2013-05-29 18:15:00,
2013-05-29 14:20:00,74.2,-99.9,20.00,NNE,28,5.0,5.0,255,0.00,,,0.00,0,Wunderground v.1.15,2013-05-29 18:20:00,
2013-05-29 14:25:00,72.8,-99.9,20.00,NNE,26,8.0,8.0,255,0.00,,,0.00,0,Wunderground v.1.15,2013-05-29 18:25:00,
2013-05-29 14:30:00,73.1,-99.9,20.00,ENE,61,4.0,5.0,255,0.00,,,0.00,0,Wunderground v.1.15,2013-05-29 18:30:00,
2013-05-29 14:35:00,72.5,-99.9,20.00,NNE,17,3.0,5.0,255,0.00,,,0.00,0,Wunderground v.1.15,2013-05-29 18:35:00,
2013-05-29 14:40:00,71.6,-99.9,20.00,NNE,31,2.0,5.0,255,0.00,,,0.00,0,Wunderground v.1.15,2013-05-29 18:40:00,
2013-05-29 14:50:00,73.6,-99.9,20.00,NNE,28,0.0,5.0,255,0.00,,,0.00,0,Wunderground v.1.15,2013-05-29 18:50:00,
2013-05-29 14:55:00,72.6,-99.9,20.00,North,0,1.0,5.0,255,0.00,,,0.00,0,Wunderground v.1.15,2013-05-29 18:55:00,
2013-05-29 15:00:00,71.6,-99.9,20.00,North,0,0.0,5.0,255,0.00,,,0.00,0,Wunderground v.1.15,2013-05-29 19:00:00,
2013-05-29 15:05:00,71.5,-99.9,20.00,North,0,0.0,5.0,255,0.00,,,0.00,0,Wunderground v.1.15,2013-05-29 19:05:00,
2013-05-29 15:10:00,71.8,-99.9,20.00,NE,56,1.0,5.0,255,0.00,,,0.00,0,Wunderground v.1.15,2013-05-29 19:10:00,
2013-05-29 15:15:00,73.6,-99.9,20.00,NE,56,2.0,5.0,255,0.00,,,0.00,0,Wunderground v.1.15,2013-05-29 19:15:00,
2013-05-29 15:25:00,73.3,-99.9,19.99,NE,56,3.0,5.0,255,0.00,,,0.00,0,Wunderground v.1.15,2013-05-29 19:25:00,
2013-05-29 15:30:00,73.5,-99.9,20.00,NE,56,2.0,5.0,255,0.00,,,0.00,0,Wunderground v.1.15,2013-05-29 19:30:00,
2013-05-29 15:35:00,72.5,-99.9,19.99,NE,56,2.0,5.0,255,0.00,,,0.00,0,Wunderground v.1.15,2013-05-29 19:35:00,
2013-05-29 15:45:00,71.8,-99.9,20.00,NE,56,4.0,5.0,255,0.00,,,0.00,0,Wunderground v.1.15,2013-05-29 19:45:00,
2013-05-29 15:50:00,71.4,-99.9,20.00,NE,56,2.0,5.0,255,0.00,,,0.00,0,Wunderground v.1.15,2013-05-29 19:50:00,
2013-05-29 16:00:00,71.2,-99.9,20.00,NE,56,1.0,5.0,255,0.00,,,0.00,0,Wunderground v.1.15,2013-05-29 20:00:00,
2013-05-29 16:05:00,71.1,-99.9,20.00,NE,56,2.0,5.0,255,0.00,,,0.00,0,Wunderground v.1.15,2013-05-29 20:05:00,
2013-05-29 16:10:00,70.7,-99.9,20.00,NE,56,4.0,5.0,255,0.00,,,0.00,0,Wunderground v.1.15,2013-05-29 20:10:00,
2013-05-29 16:15:00,70.5,-99.9,20.00,NE,56,0.0,5.0,255,0.00,,,0.00,0,Wunderground v.1.15,2013-05-29 20:15:00,
2013-05-29 16:20:00,70.4,-99.9,20.00,NE,56,0.0,5.0,255,0.00,,,0.00,0,Wunderground v.1.15,2013-05-29 20:20:00,
2013-05-29 16:25:00,70.5,-99.9,19.99,NE,56,0.0,5.0,255,0.00,,,0.00,0,Wunderground v.1.15,2013-05-29 20:25:00,
2013-05-29 16:30:00,70.2,-99.9,20.00,NE,56,2.0,5.0,255,0.00,,,0.00,0,Wunderground v.1.15,2013-05-29 20:30:00,
2013-05-29 16:35:00,70.2,-99.9,20.00,WNW,297,2.0,5.0,255,0.00,,,0.00,0,Wunderground v.1.15,2013-05-29 20:35:00,
2013-05-29 16:40:00,70.4,-99.9,20.00,WNW,297,0.0,5.0,255,0.00,,,0.00,0,Wunderground v.1.15,2013-05-29 20:40:00,
2013-05-29 16:50:00,70.4,-99.9,20.00,WNW,297,3.0,5.0,255,0.00,,,0.00,0,Wunderground v.1.15,2013-05-29 20:50:00,
2013-05-29 16:55:00,70.2,-99.9,19.99,WNW,293,6.0,6.0,255,0.00,,,0.00,0,Wunderground v.1.15,2013-05-29 20:55:00,
2013-05-29 17:00:00,70.3,-99.9,20.00,NW,304,0.0,5.0,255,0.00,,,0.00,0,Wunderground v.1.15,2013-05-29 21:00:00,
2013-05-29 17:05:00,71.0,-99.9,20.00,NNW,335,4.0,5.0,255,0.00,,,0.00,0,Wunderground v.1.15,2013-05-29 21:05:00,
2013-05-29 17:10:00,71.0,-99.9,20.00,NNW,329,1.0,5.0,255,0.00,,,0.00,0,Wunderground v.1.15,2013-05-29 21:10:00,
2013-05-29 17:15:00,71.0,-99.9,20.00,NW,318,3.0,5.0,255,0.00,,,0.00,0,Wunderground v.1.15,2013-05-29 21:15:00,
2013-05-29 17:20:00,71.0,-99.9,20.00,North,0,2.0,5.0,255,0.00,,,0.00,0,Wunderground v.1.15,2013-05-29 21:20:00,
2013-05-29 17:25:00,71.2,-99.9,20.00,North,0,0.0,5.0,255,0.00,,,0.00,0,Wunderground v.1.15,2013-05-29 21:25:00,
2013-05-29 17:30:00,71.7,-99.9,20.00,North,0,2.0,5.0,255,0.00,,,0.00,0,Wunderground v.1.15,2013-05-29 21:30:00,
2013-05-29 17:40:00,72.1,-99.9,19.99,NNE,17,2.0,5.0,255,0.00,,,0.00,0,Wunderground v.1.15,2013-05-29 21:40:00,
2013-05-29 17:50:00,72.3,-99.9,20.00,North,0,2.0,5.0,255,0.00,,,0.00,0,Wunderground v.1.15,2013-05-29 21:50:00,
2013-05-29 17:55:00,74.9,-99.9,20.00,NNW,338,2.0,5.0,255,0.00,,,0.00,0,Wunderground v.1.15,2013-05-29 21:55:00,
2013-05-29 18:00:00,72.8,-99.9,20.00,North,0,4.0,5.0,255,0.00,,,0.00,0,Wunderground v.1.15,2013-05-29 22:00:00,
2013-05-29 18:05:00,72.6,-99.9,20.00,NW,314,0.0,5.0,255,0.00,,,0.00,0,Wunderground v.1.15,2013-05-29 22:05:00,
2013-05-29 18:15:00,72.5,-99.9,20.00,NE,41,4.0,9.0,255,0.00,,,0.00,0,Wunderground v.1.15,2013-05-29 22:15:00,
2013-05-29 18:20:00,72.1,-99.9,20.00,NE,40,3.0,9.0,255,0.00,,,0.00,0,Wunderground v.1.15,2013-05-29 22:20:00,
2013-05-29 18:30:00,71.2,-99.9,20.00,NE,40,3.0,9.0,255,0.00,,,0.00,0,Wunderground v.1.15,2013-05-29 22:30:00,
2013-05-29 18:35:00,71.6,-99.9,20.00,NE,53,0.0,9.0,255,0.00,,,0.00,0,Wunderground v.1.15,2013-05-29 22:35:00,
2013-05-29 18:40:00,71.3,-99.9,20.00,NE,52,0.0,9.0,255,0.00,,,0.00,0,Wunderground v.1.15,2013-05-29 22:40:00,
2013-05-29 18:45:00,71.3,-99.9,20.00,West,265,2.0,9.0,255,0.00,,,0.00,0,Wunderground v.1.15,2013-05-29 22:45:00,
2013-05-29 18:50:00,70.7,-99.9,19.99,West,265,0.0,9.0,255,0.00,,,0.00,0,Wunderground v.1.15,2013-05-29 22:50:00,
2013-05-29 19:00:00,70.3,-99.9,20.00,West,265,0.0,9.0,255,0.00,,,0.00,0,Wunderground v.1.15,2013-05-29 23:00:00,
2013-05-29 19:10:00,69.4,-99.9,20.00,South,174,0.0,9.0,255,0.00,,,0.00,0,Wunderground v.1.15,2013-05-29 23:10:00,
2013-05-29 19:15:00,69.1,-99.9,20.00,South,174,0.0,9.0,255,0.00,,,0.00,0,Wunderground v.1.15,2013-05-29 23:15:00,
2013-05-29 19:25:00,68.2,-99.9,20.00,South,177,3.0,9.0,255,0.00,,,0.00,0,Wunderground v.1.15,2013-05-29 23:25:00,
2013-05-29 19:35:00,68.1,-99.9,19.99,NW,309,2.0,9.0,255,0.00,,,0.00,0,Wunderground v.1.15,2013-05-29 23:35:00,
2013-05-29 19:40:00,68.2,-99.9,20.00,NW,317,2.0,9.0,255,0.00,,,0.00,0,Wunderground v.1.15,2013-05-29 23:40:00,
2013-05-29 19:45:00,68.1,-99.9,20.00,NW,317,4.0,9.0,255,0.00,,,0.00,0,Wunderground v.1.15,2013-05-29 23:45:00,
2013-05-29 19:50:00,68.1,-99.9,19.99,NNW,334,5.0,9.0,255,0.00,,,0.00,0,Wunderground v.1.15,2013-05-29 23:50:00,
2013-05-29 20:00:00,67.5,-99.9,20.00,NNW,339,3.0,9.0,255,0.00,,,0.00,0,Wunderground v.1.15,2013-05-30 00:00:00,
2013-05-29 20:10:00,67.8,-99.9,20.00,NNW,341,6.0,9.0,255,0.00,,,0.00,0,Wunderground v.1.15,2013-05-30 00:10:00,
2013-05-29 20:15:00,67.8,-99.9,20.00,North,356,2.0,9.0,255,0.00,,,0.00,0,Wunderground v.1.15,2013-05-30 00:15:00,
2013-05-29 20:20:00,67.6,-99.9,20.00,North,354,3.0,9.0,255,0.00,,,0.00,0,Wunderground v.1.15,2013-05-30 00:20:00,
2013-05-29 20:30:00,67.8,-99.9,19.99,North,10,3.0,9.0,255,0.00,,,0.00,0,Wunderground v.1.15,2013-05-30 00:30:00,
2013-05-29 20:40:00,67.0,-99.9,19.99,WNW,297,2.0,9.0,255,0.00,,,0.00,0,Wunderground v.1.15,2013-05-30 00:40:00,
2013-05-29 20:45:00,66.8,-99.9,20.00,WNW,297,5.0,9.0,255,0.00,,,0.00,0,Wunderground v.1.15,2013-05-30 00:45:00,
2013-05-29 20:55:00,66.9,-99.9,20.00,WNW,297,5.0,9.0,255,0.00,,,0.00,0,Wunderground v.1.15,2013-05-30 00:55:00,
2013-05-29 21:00:00,66.7,-99.9,20.00,West,276,2.0,9.0,255,0.00,,,0.00,0,Wunderground v.1.15,2013-05-30 01:00:00,
2013-05-29 21:05:00,66.6,-99.9,19.99,West,276,2.0,9.0,255,0.00,,,0.00,0,Wunderground v.1.15,2013-05-30 01:05:00,
2013-05-29 21:10:00,66.6,-99.9,19.99,West,271,3.0,9.0,255,0.00,,,0.00,0,Wunderground v.1.15,2013-05-30 01:10:00,
2013-05-29 21:15:00,65.5,-99.9,20.00,WSW,244,3.0,9.0,255,0.00,,,0.00,0,Wunderground v.1.15,2013-05-30 01:15:00,
2013-05-29 21:25:00,66.8,-99.9,20.00,WSW,244,1.0,9.0,255,0.00,,,0.00,0,Wunderground v.1.15,2013-05-30 01:25:00,
2013-05-29 21:30:00,66.2,-99.9,19.99,WSW,244,2.0,9.0,255,0.00,,,0.00,0,Wunderground v.1.15,2013-05-30 01:30:00,
2013-05-29 21:40:00,66.3,-99.9,19.99,West,263,0.0,9.0,255,0.00,,,0.00,0,Wunderground v.1.15,2013-05-30 01:40:00,
2013-05-29 21:45:00,66.1,-99.9,20.00,West,263,0.0,9.0,255,0.00,,,0.00,0,Wunderground v.1.15,2013-05-30 01:45:00,
2013-05-29 21:50:00,66.5,-99.9,19.99,West,263,0.0,9.0,255,0.00,,,0.00,0,Wunderground v.1.15,2013-05-30 01:50:00,
2013-05-29 22:00:00,66.2,-99.9,19.99,West,263,1.0,9.0,255,0.00,,,0.00,0,Wunderground v.1.15,2013-05-30 02:00:00,
2013-05-29 22:05:00,66.1,-99.9,20.00,West,263,1.0,9.0,255,0.00,,,0.00,0,Wunderground v.1.15,2013-05-30 02:05:00,
2013-05-29 22:10:00,65.7,-99.9,19.99,West,263,2.0,9.0,255,0.00,,,0.00,0,Wunderground v.1.15,2013-05-30 02:10:00,
2013-05-29 22:15:00,65.8,-99.9,20.00,NNW,329,5.0,9.0,255,0.00,,,0.00,0,Wunderground v.1.15,2013-05-30 02:15:00,
2013-05-29 22:20:00,65.9,-99.9,20.00,NNE,27,0.0,9.0,255,0.00,,,0.00,0,Wunderground v.1.15,2013-05-30 02:20:00,
2013-05-29 22:25:00,64.9,-99.9,20.00,ENE,61,2.0,9.0,255,0.00,,,0.00,0,Wunderground v.1.15,2013-05-30 02:25:00,
2013-05-29 22:35:00,64.3,-99.9,20.00,ENE,60,1.0,9.0,255,0.00,,,0.00,0,Wunderground v.1.15,2013-05-30 02:35:00,
2013-05-29 22:40:00,64.3,-99.9,20.00,ENE,60,1.0,9.0,255,0.00,,,0.00,0,Wunderground v.1.15,2013-05-30 02:40:00,
2013-05-29 22:50:00,64.3,-99.9,20.00,North,0,4.0,9.0,255,0.00,,,0.00,0,Wunderground v.1.15,2013-05-30 02:50:00,
2013-05-29 22:55:00,64.1,-99.9,20.00,NW,320,5.0,9.0,255,0.00,,,0.00,0,Wunderground v.1.15,2013-05-30 02:55:00,
2013-05-29 23:00:00,64.5,-99.9,20.00,NNW,345,4.0,9.0,255,0.00,,,0.00,0,Wunderground v.1.15,2013-05-30 03:00:00,
2013-05-29 23:05:00,64.7,-99.9,20.00,North,350,8.0,9.0,255,0.00,,,0.00,0,Wunderground v.1.15,2013-05-30 03:05:00,
2013-05-29 23:10:00,64.7,-99.9,20.00,NNW,343,5.0,9.0,255,0.00,,,0.00,0,Wunderground v.1.15,2013-05-30 03:10:00,
2013-05-29 23:15:00,64.4,-99.9,20.00,NNW,342,4.0,9.0,255,0.00,,,0.00,0,Wunderground v.1.15,2013-05-30 03:15:00,
2013-05-29 23:20:00,64.6,-99.9,20.00,North,352,3.0,9.0,255,0.00,,,0.00,0,Wunderground v.1.15,2013-05-30 03:20:00,
2013-05-29 23:25:00,64.5,-99.9,20.00,NNW,335,4.0,9.0,255,0.00,,,0.00,0,Wunderground v.1.15,2013-05-30 03:25:00,
2013-05-29 23:30:00,64.6,-99.9,20.00,NE,38,3.0,9.0,255,0.00,,,0.00,0,Wunderground v.1.15,2013-05-30 03:30:00,
2013-05-29 23:40:00,64.5,-99.9,20.00,North,350,5.0,9.0,255,0.00,,,0.00,0,Wunderground v.1.15,2013-05-30 03:40:00,
2013-05-29 23:45:00,64.4,-99.9,20.00,North,0,4.0,9.0,255,0.00,,,0.00,0,Wunderground v.1.15,2013-05-30 03:45:00,
2013-05-29 23:50:00,64.5,-99.9,19.99,North,358,2.0,9.0,255,0.00,,,0.00,0,Wunderground v.1.15,2013-05-30 03:50:00,
2013-05-29 23:55:00,64.1,-99.9,20.00,NNW,334,4.0,9.0,255,0.00,,,0.00,0,Wunderground v.1.15,2013-05-30 03:55:00,